RYR72M LIEE-LEAL

Flight info

Callsign RYR72M
Flight time N/A
Altitude 31000
Route KOVAS5J KOVAS DCT XATOS DCT SOTAX N733 CDP M603 GERVU GERVU3N
Aircraft B738/M-SDE2E3FGHIRWXY/LB1

Departure

Time 2026-05-07 12:00
Airport Cagliari Elmas Airport (LIEE)

Arrival

Time N/A
Airport Alicante-Elche Miguel Hernández Airport (LEAL)
Time Latitude Longitude Altitude Speed Heading
2026-05-07 11:45 39.25262 9.05981 14 ft 0 kts 322°
2026-05-07 11:51 39.25259 9.05984 14 ft 4 kts 321°
2026-05-07 11:51 39.25239 9.06008 14 ft 4 kts 308°
2026-05-07 11:51 39.25226 9.06036 15 ft 4 kts 281°
2026-05-07 11:52 39.25227 9.06063 15 ft 1 kts 232°
2026-05-07 11:55 39.25222 9.06054 14 ft 2 kts 232°
2026-05-07 11:55 39.25209 9.06032 15 ft 4 kts 232°
2026-05-07 11:56 39.25188 9.05998 14 ft 6 kts 232°
2026-05-07 11:56 39.25158 9.05947 14 ft 11 kts 232°
2026-05-07 11:56 39.25154 9.05873 15 ft 2 kts 300°
2026-05-07 11:56 39.25147 9.05828 14 ft 8 kts 242°
2026-05-07 11:57 39.25093 9.05778 14 ft 12 kts 168°
2026-05-07 11:57 39.25009 9.05863 14 ft 19 kts 138°
2026-05-07 11:57 39.24894 9.05997 14 ft 25 kts 138°
2026-05-07 11:57 39.24771 9.06137 14 ft 21 kts 137°
2026-05-07 11:58 39.24648 9.06281 14 ft 26 kts 137°
2026-05-07 11:58 39.24528 9.06420 14 ft 22 kts 137°
2026-05-07 11:58 39.24415 9.06552 14 ft 16 kts 138°
2026-05-07 11:58 39.24349 9.06569 14 ft 10 kts 197°
2026-05-07 11:59 39.24266 9.06532 16 ft 14 kts 211°
2026-05-07 11:59 39.24257 9.06459 16 ft 8 kts 323°
2026-05-07 11:59 39.24272 9.06442 15 ft 0 kts 319°
2026-05-07 12:00 39.24420 9.06270 14 ft 69 kts 317°
2026-05-07 12:00 39.24994 9.05606 16 ft 149 kts 318°
2026-05-07 12:00 39.25904 9.04546 351 ft 192 kts 315°
2026-05-07 12:00 39.26978 9.03371 1123 ft 210 kts 330°
2026-05-07 12:01 39.28370 9.02913 2086 ft 211 kts
2026-05-07 12:01 39.29817 9.03386 2886 ft 221 kts 19°
2026-05-07 12:01 39.31381 9.03646 3637 ft 234 kts
2026-05-07 12:01 39.33000 9.03725 4747 ft 234 kts
2026-05-07 12:02 39.34643 9.03806 5768 ft 237 kts
2026-05-07 12:02 39.36303 9.03905 6762 ft 240 kts
2026-05-07 12:02 39.37985 9.04020 7712 ft 245 kts
2026-05-07 12:02 39.39735 9.04157 8401 ft 264 kts
2026-05-07 12:03 39.41676 9.04318 8835 ft 290 kts
2026-05-07 12:03 39.43683 9.04487 9872 ft 284 kts
2026-05-07 12:03 39.45613 9.04650 10976 ft 271 kts
2026-05-07 12:03 39.47480 9.04856 11880 ft 271 kts
2026-05-07 12:04 39.49432 9.05110 12148 ft 295 kts
2026-05-07 12:04 39.51556 9.05395 12340 ft 318 kts
2026-05-07 12:04 39.53840 9.05698 12531 ft 341 kts
2026-05-07 12:04 39.56276 9.06016 12701 ft 362 kts
2026-05-07 12:05 39.58821 9.06201 12944 ft 378 kts 353°
2026-05-07 12:05 39.61343 9.05250 13485 ft 381 kts 329°
2026-05-07 12:05 39.63403 9.03138 14156 ft 378 kts 308°
2026-05-07 12:05 39.64736 9.00235 14795 ft 374 kts 288°
2026-05-07 12:06 39.65261 8.97066 15411 ft 373 kts 273°
2026-05-07 12:06 39.65458 8.93698 16048 ft 375 kts 271°
2026-05-07 12:06 39.65608 8.90295 16648 ft 378 kts 271°
2026-05-07 12:06 39.65750 8.86873 17256 ft 381 kts 271°
2026-05-07 12:07 39.65898 8.83429 17878 ft 383 kts 271°
2026-05-07 12:07 39.66057 8.79961 18446 ft 386 kts 271°
2026-05-07 12:07 39.66224 8.76472 18991 ft 388 kts 271°
2026-05-07 12:07 39.66395 8.73024 19581 ft 388 kts 271°
2026-05-07 12:08 39.66571 8.69523 20186 ft 388 kts 271°
2026-05-07 12:08 39.66748 8.66027 20740 ft 389 kts 271°
2026-05-07 12:08 39.66925 8.62516 21269 ft 390 kts 271°
2026-05-07 12:08 39.67102 8.58993 21786 ft 392 kts 271°
2026-05-07 12:09 39.67278 8.55459 22310 ft 393 kts 271°
2026-05-07 12:09 39.67454 8.51924 22803 ft 393 kts 271°
2026-05-07 12:09 39.67628 8.48369 23284 ft 395 kts 271°
2026-05-07 12:09 39.67802 8.44796 23701 ft 397 kts 271°
2026-05-07 12:10 39.67977 8.41201 24075 ft 399 kts 271°
2026-05-07 12:10 39.68150 8.37598 24441 ft 401 kts 271°
2026-05-07 12:10 39.68324 8.33976 24821 ft 403 kts 271°
2026-05-07 12:10 39.68498 8.30323 25137 ft 406 kts 270°
2026-05-07 12:11 39.68669 8.26696 25480 ft 408 kts 270°
2026-05-07 12:11 39.68843 8.23013 25843 ft 409 kts 270°
2026-05-07 12:11 39.69016 8.19318 26198 ft 410 kts 270°
2026-05-07 12:11 39.69188 8.15614 26618 ft 410 kts 270°
2026-05-07 12:12 39.69358 8.11940 27121 ft 407 kts 270°
2026-05-07 12:12 39.69527 8.08269 27637 ft 405 kts 269°
2026-05-07 12:12 39.69693 8.04630 28111 ft 403 kts 269°
2026-05-07 12:12 39.69856 8.00996 28564 ft 402 kts 269°
2026-05-07 12:13 39.69900 7.97526 29006 ft 398 kts 265°
2026-05-07 12:13 39.69841 7.93985 29513 ft 396 kts 264°
2026-05-07 12:13 39.69758 7.90424 29992 ft 394 kts 263°
2026-05-07 12:13 39.69668 7.86870 30406 ft 392 kts 263°
2026-05-07 12:14 39.69580 7.83353 30839 ft 389 kts 263°
2026-05-07 12:14 39.69495 7.79841 31162 ft 388 kts 263°
2026-05-07 12:14 39.69412 7.76329 31508 ft 387 kts 264°
2026-05-07 12:14 39.69331 7.72838 31923 ft 384 kts 264°
2026-05-07 12:15 39.69279 7.70556 32232 ft 381 kts 264°
2026-05-07 12:15 39.69202 7.67129 32686 ft 377 kts 264°
2026-05-07 12:15 39.69124 7.63731 32952 ft 377 kts 264°
2026-05-07 12:16 39.68962 7.56890 33280 ft 379 kts 263°
2026-05-07 12:16 39.68882 7.53484 33731 ft 374 kts 263°
2026-05-07 12:16 39.68803 7.50138 34254 ft 367 kts 263°
2026-05-07 12:16 39.68726 7.46853 34727 ft 360 kts 263°
2026-05-07 12:17 39.68648 7.43646 34913 ft 360 kts 263°
2026-05-07 12:17 39.68481 7.37126 34951 ft 361 kts 263°
2026-05-07 12:18 39.68314 7.30626 34964 ft 359 kts 263°
2026-05-07 12:18 39.68145 7.24164 34962 ft 357 kts 263°
2026-05-07 12:19 39.67973 7.17729 34966 ft 356 kts 263°
2026-05-07 12:19 39.67798 7.11315 34964 ft 355 kts 263°
2026-05-07 12:20 39.67620 7.04905 34965 ft 355 kts 262°
2026-05-07 12:20 39.67441 6.98606 34965 ft 356 kts 262°
2026-05-07 12:21 39.67256 6.92220 34962 ft 356 kts 262°
2026-05-07 12:21 39.67066 6.85772 34966 ft 358 kts 262°
2026-05-07 12:22 39.66872 6.79297 34974 ft 360 kts 262°
2026-05-07 12:22 39.66672 6.72793 34970 ft 364 kts 262°
2026-05-07 12:23 39.66467 6.66202 34974 ft 367 kts 262°
2026-05-07 12:23 39.66257 6.59556 34965 ft 370 kts 262°
2026-05-07 12:24 39.66042 6.52870 34962 ft 372 kts 262°
2026-05-07 12:24 39.65822 6.46163 34976 ft 372 kts 262°
2026-05-07 12:25 39.65599 6.39440 34970 ft 373 kts 262°
2026-05-07 12:25 39.65370 6.32701 34966 ft 373 kts 262°
2026-05-07 12:26 39.65138 6.25972 34962 ft 373 kts 262°
2026-05-07 12:26 39.64904 6.19293 34960 ft 373 kts 262°
2026-05-07 12:27 39.64664 6.12571 34959 ft 372 kts 262°
2026-05-07 12:27 39.64421 6.05862 34959 ft 372 kts 261°
2026-05-07 12:28 39.64179 5.99320 34958 ft 372 kts 261°
2026-05-07 12:28 39.63942 5.92980 34965 ft 373 kts 261°
2026-05-07 12:29 39.63686 5.86245 34961 ft 374 kts 261°
2026-05-07 12:29 39.63426 5.79496 34967 ft 375 kts 261°
2026-05-07 12:30 39.63161 5.72736 34966 ft 375 kts 261°
2026-05-07 12:30 39.62894 5.66003 34973 ft 377 kts 261°
2026-05-07 12:31 39.62620 5.59201 34968 ft 378 kts 261°
2026-05-07 12:31 39.62341 5.52376 34963 ft 379 kts 261°
2026-05-07 12:32 39.62057 5.45540 34958 ft 380 kts 261°
2026-05-07 12:32 39.61769 5.38684 34962 ft 380 kts 261°
2026-05-07 12:33 39.61331 5.28444 34965 ft 382 kts 261°
2026-05-07 12:33 39.61032 5.21562 34960 ft 382 kts 261°
2026-05-07 12:34 39.60728 5.14671 34957 ft 382 kts 261°
2026-05-07 12:34 39.60421 5.07794 34956 ft 382 kts 261°
2026-05-07 12:35 39.60109 5.00906 34956 ft 382 kts 261°
2026-05-07 12:35 39.59803 4.94239 34975 ft 382 kts 261°
2026-05-07 12:36 39.59483 4.87360 34962 ft 382 kts 261°
2026-05-07 12:36 39.59159 4.80464 34955 ft 382 kts 261°
2026-05-07 12:37 39.58832 4.73579 34957 ft 382 kts 260°
2026-05-07 12:37 39.58555 4.66687 34951 ft 385 kts 264°
2026-05-07 12:38 39.59128 4.59747 34959 ft 391 kts 270°
2026-05-07 12:38 39.59828 4.52753 34962 ft 392 kts 270°
2026-05-07 12:39 39.60511 4.45737 34963 ft 392 kts 270°
2026-05-07 12:39 39.61181 4.38715 34972 ft 393 kts 269°
2026-05-07 12:40 39.61846 4.31662 34975 ft 394 kts 269°
2026-05-07 12:40 39.62503 4.24644 34978 ft 395 kts 269°
2026-05-07 12:41 39.63162 4.17569 34986 ft 396 kts 269°
2026-05-07 12:41 39.63818 4.10464 34982 ft 397 kts 269°
2026-05-07 12:42 39.64473 4.03337 34976 ft 398 kts 269°
2026-05-07 12:42 39.65114 3.96308 34969 ft 399 kts 269°
2026-05-07 12:43 39.65762 3.89148 34961 ft 400 kts 269°
2026-05-07 12:43 39.66403 3.82028 34957 ft 400 kts 269°
2026-05-07 12:44 39.67044 3.74845 34957 ft 401 kts 269°
2026-05-07 12:44 39.67685 3.67624 34959 ft 402 kts 269°
2026-05-07 12:45 39.68320 3.60412 34959 ft 402 kts 269°
2026-05-07 12:45 39.68948 3.53239 34960 ft 403 kts 269°
2026-05-07 12:46 39.69419 3.46007 34946 ft 396 kts 261°
2026-05-07 12:46 39.68591 3.39048 34957 ft 386 kts 248°
2026-05-07 12:47 39.66764 3.32541 34954 ft 384 kts 245°
2026-05-07 12:47 39.64886 3.26045 34957 ft 384 kts 245°
2026-05-07 12:48 39.63020 3.19542 34950 ft 384 kts 245°
2026-05-07 12:48 39.61174 3.13082 34953 ft 384 kts 245°
2026-05-07 12:49 39.59315 3.06584 34949 ft 384 kts 245°
2026-05-07 12:49 39.57452 3.00086 34960 ft 384 kts 245°
2026-05-07 12:50 39.55622 2.93720 34953 ft 384 kts 245°
2026-05-07 12:50 39.53757 2.87245 34933 ft 384 kts 245°
2026-05-07 12:51 39.51898 2.80812 34939 ft 384 kts 245°
2026-05-07 12:51 39.50033 2.74325 34937 ft 384 kts 245°
2026-05-07 12:52 39.48168 2.67844 34942 ft 384 kts 245°
2026-05-07 12:52 39.46306 2.61385 34948 ft 384 kts 244°
2026-05-07 12:53 39.44441 2.54937 34943 ft 384 kts 244°
2026-05-07 12:53 39.42564 2.48460 34943 ft 384 kts 244°
2026-05-07 12:54 39.40682 2.41985 34944 ft 384 kts 244°
2026-05-07 12:54 39.38788 2.35518 34944 ft 384 kts 244°
2026-05-07 12:55 39.36900 2.29098 34940 ft 384 kts 244°
2026-05-07 12:55 39.34995 2.22634 34945 ft 385 kts 243°
2026-05-07 12:56 39.33081 2.16149 34923 ft 386 kts 243°
2026-05-07 12:56 39.31162 2.09664 34939 ft 388 kts 243°
2026-05-07 12:57 39.29229 2.03145 34945 ft 389 kts 243°
2026-05-07 12:57 39.27340 1.96791 34940 ft 391 kts 243°
2026-05-07 12:58 39.25384 1.90228 34970 ft 392 kts 244°
2026-05-07 12:58 39.23421 1.83654 34950 ft 393 kts 243°
2026-05-07 12:59 39.21450 1.77071 34939 ft 394 kts 243°
2026-05-07 12:59 39.19478 1.70501 34939 ft 394 kts 243°
2026-05-07 13:00 39.17497 1.63915 34936 ft 394 kts 243°
2026-05-07 13:00 39.15514 1.57340 34937 ft 394 kts 243°
2026-05-07 13:01 39.13528 1.50765 34972 ft 394 kts 243°
2026-05-07 13:01 39.11558 1.44265 34941 ft 394 kts 243°
2026-05-07 13:02 39.09589 1.37769 34828 ft 388 kts 243°
2026-05-07 13:02 39.08931 1.35597 34623 ft 383 kts 243°
2026-05-07 13:02 39.07664 1.31417 34152 ft 375 kts 242°
2026-05-07 13:03 39.06721 1.28313 33776 ft 370 kts 242°
2026-05-07 13:03 39.05785 1.25243 33338 ft 366 kts 242°
2026-05-07 13:03 39.04861 1.22213 32958 ft 362 kts 242°
2026-05-07 13:03 39.04253 1.20224 32682 ft 359 kts 242°
2026-05-07 13:04 39.03343 1.17247 32313 ft 355 kts 242°
2026-05-07 13:04 39.02450 1.14325 31940 ft 352 kts 242°
2026-05-07 13:04 39.01554 1.11396 31557 ft 348 kts 242°
2026-05-07 13:04 39.00669 1.08513 31168 ft 345 kts 242°
2026-05-07 13:05 38.99792 1.05655 30801 ft 342 kts 242°
2026-05-07 13:05 38.98921 1.02818 30441 ft 339 kts 242°
2026-05-07 13:05 38.98058 1.00011 30086 ft 336 kts 242°
2026-05-07 13:05 38.97226 0.97307 29686 ft 334 kts 242°
2026-05-07 13:06 38.96388 0.94586 29308 ft 330 kts 242°
2026-05-07 13:06 38.95548 0.91860 28909 ft 327 kts 242°
2026-05-07 13:06 38.94714 0.89157 28543 ft 323 kts 242°
2026-05-07 13:06 38.93888 0.86485 28164 ft 320 kts 242°
2026-05-07 13:07 38.93069 0.83840 27807 ft 318 kts 242°
2026-05-07 13:07 38.92252 0.81202 27437 ft 317 kts 242°
2026-05-07 13:07 38.91428 0.78549 27090 ft 325 kts 243°
2026-05-07 13:07 38.90570 0.75792 26751 ft 339 kts 242°
2026-05-07 13:08 38.89689 0.72954 26339 ft 343 kts 242°
2026-05-07 13:08 38.88808 0.70113 25912 ft 341 kts 242°
2026-05-07 13:08 38.87932 0.67289 25521 ft 339 kts 243°
2026-05-07 13:08 38.87059 0.64485 25132 ft 337 kts 243°
2026-05-07 13:09 38.86189 0.61696 24748 ft 335 kts 243°
2026-05-07 13:09 38.85335 0.58961 24394 ft 333 kts 243°
2026-05-07 13:09 38.84476 0.56209 24031 ft 332 kts 243°
2026-05-07 13:09 38.83617 0.53465 23658 ft 331 kts 243°
2026-05-07 13:10 38.82761 0.50733 23253 ft 329 kts 243°
2026-05-07 13:10 38.81912 0.48005 22858 ft 328 kts 245°
2026-05-07 13:10 38.81221 0.45215 22501 ft 329 kts 250°
2026-05-07 13:10 38.80633 0.42388 22159 ft 329 kts 251°
2026-05-07 13:11 38.80063 0.39524 21818 ft 332 kts 252°
2026-05-07 13:11 38.79487 0.36644 21488 ft 335 kts 252°
2026-05-07 13:11 38.78899 0.33740 21130 ft 336 kts 252°
2026-05-07 13:11 38.78303 0.30839 20775 ft 335 kts 252°
2026-05-07 13:12 38.77713 0.28000 20440 ft 334 kts 252°
2026-05-07 13:12 38.77112 0.25128 20095 ft 333 kts 252°
2026-05-07 13:12 38.76509 0.22268 19758 ft 332 kts 252°
2026-05-07 13:12 38.75906 0.19414 19410 ft 331 kts 252°
2026-05-07 13:13 38.75304 0.16572 19077 ft 330 kts 252°
2026-05-07 13:13 38.74700 0.13728 18741 ft 330 kts 252°
2026-05-07 13:13 38.74095 0.10886 18407 ft 329 kts 253°
2026-05-07 13:13 38.73492 0.08057 18041 ft 329 kts 253°
2026-05-07 13:14 38.72892 0.05243 17660 ft 327 kts 253°
2026-05-07 13:14 38.72303 0.02482 17308 ft 324 kts 253°
2026-05-07 13:14 38.71732 -0.00185 16984 ft 321 kts 253°
2026-05-07 13:14 38.71137 -0.02967 16640 ft 319 kts 252°
2026-05-07 13:15 38.70557 -0.05670 16310 ft 319 kts 252°
2026-05-07 13:15 38.69970 -0.08406 15990 ft 319 kts 252°
2026-05-07 13:15 38.69380 -0.11151 15666 ft 320 kts 252°
2026-05-07 13:15 38.68786 -0.13906 15325 ft 321 kts 252°
2026-05-07 13:16 38.68192 -0.16660 15004 ft 322 kts 253°
2026-05-07 13:16 38.67595 -0.19427 14659 ft 322 kts 253°
2026-05-07 13:16 38.67001 -0.22181 14336 ft 320 kts 253°
2026-05-07 13:16 38.66409 -0.24919 14012 ft 318 kts 253°
2026-05-07 13:17 38.65820 -0.27637 13686 ft 316 kts 252°
2026-05-07 13:17 38.65234 -0.30344 13327 ft 315 kts 252°
2026-05-07 13:17 38.64650 -0.33039 12975 ft 314 kts 253°
2026-05-07 13:17 38.64067 -0.35720 12643 ft 312 kts 253°
2026-05-07 13:18 38.63486 -0.38386 12321 ft 310 kts 253°
2026-05-07 13:18 38.62908 -0.41038 11996 ft 309 kts 253°
2026-05-07 13:18 38.62331 -0.43679 11691 ft 308 kts 252°
2026-05-07 13:18 38.61757 -0.46311 11359 ft 307 kts 252°
2026-05-07 13:19 38.61190 -0.48904 11056 ft 305 kts 253°
2026-05-07 13:19 38.60618 -0.51516 10751 ft 305 kts 252°
2026-05-07 13:19 38.60047 -0.54123 10424 ft 304 kts 253°
2026-05-07 13:19 38.59476 -0.56718 10111 ft 302 kts 252°
2026-05-07 13:20 38.58909 -0.59298 9874 ft 297 kts 252°
2026-05-07 13:20 38.58365 -0.61780 9777 ft 287 kts 251°
2026-05-07 13:20 38.57811 -0.64289 9259 ft 294 kts 253°
2026-05-07 13:20 38.57257 -0.66809 8858 ft 294 kts 253°
2026-05-07 13:21 38.56712 -0.69285 8583 ft 284 kts 252°
2026-05-07 13:21 38.56189 -0.71660 8261 ft 278 kts 252°
2026-05-07 13:21 38.55666 -0.74027 7997 ft 276 kts 252°
2026-05-07 13:21 38.55153 -0.76352 7683 ft 270 kts 252°
2026-05-07 13:22 38.54651 -0.78619 7415 ft 263 kts 253°
2026-05-07 13:22 38.54153 -0.80858 7153 ft 262 kts 253°
2026-05-07 13:22 38.53525 -0.83035 6865 ft 260 kts 234°
2026-05-07 13:22 38.52200 -0.84520 6641 ft 252 kts 202°
2026-05-07 13:23 38.50529 -0.85002 6397 ft 245 kts 178°
2026-05-07 13:23 38.48866 -0.84746 6163 ft 238 kts 165°
2026-05-07 13:23 38.47638 -0.84386 5981 ft 236 kts 164°
2026-05-07 13:24 38.47187 -0.84247 5930 ft 236 kts 163°